Hourly Data Report for October 15, 2016

All times are specified in Local Standard Time (LST). Add 1 hour to adjust for Daylight Saving Time where and when it is observed.

IQALUIT CLIMATE
NUNAVUT

63°44'50.000" N
68°32'40.000" W
33.50 m
2402592
71321
XFB

Download Data

Hourly Data (October 2016)
Hourly Data Report for October 15, 2016
Temp Definition
°C
Dew Point Temp Definition
°C
Rel Hum Definition
%
Wind Dir Definition
10's deg

Wind Spd Definition
km/h
Visibility Definition
km
Stn Press Definition
kPa
Hmdx Definition


Wind Chill Definition


Weather Definition


TIME
00:00 -7.8 -8.6 94 1 8   100.33   -12 LegendNANA
01:00 -10.3 -11.5 91 2 6   100.36   -14 LegendNANA
02:00 -8.8 -9.6 94 36 7   100.38   -13 LegendNANA
03:00 -8.8 -9.7 94 1 4   100.40   -11 LegendNANA
04:00 -9.3 -10.3 93 2 4   100.41   -12 LegendNANA
05:00 -6.7 -7.6 93 1 5   100.44   -9 LegendNANA
06:00 -7.2 -8.5 91 36 6   100.48   -10 LegendNANA
07:00 -6.5 -7.6 92 1 4   100.52   -8 LegendNANA
08:00 -5.4 -6.6 91 36 6   100.56   -8 LegendNANA
09:00 -5.1 -6.4 90 2 4   100.61   -7 LegendNANA
10:00 -3.4 -6.1 81 0 1   100.66   -4 LegendNANA
11:00 -3.2 -6.4 78 27 3   100.72   -4 LegendNANA
12:00 -3.3 -6.5 79 34 4   100.76   -5 LegendNANA
13:00 -3.0 -6.9 75 35 4   100.82   -5 LegendNANA
14:00 -3.3 -6.5 79 34 4   100.89   -5 LegendNANA
15:00 -3.7 -6.4 82 36 5   100.96   -6 LegendNANA
16:00 -4.1 -6.7 82 35 5   101.01   -6 LegendNANA
17:00 -4.2 -6.4 85 33 7   101.06   -7 LegendNANA
18:00 -4.0 -6.6 83 33 7   101.11   -7 LegendNANA
19:00 -3.4 -7.5 74 36 8   101.15   -7 LegendNANA
20:00 -3.8 -7.2 77 28 4   101.17   -5 LegendNANA
21:00 -4.1 -6.9 81 36 7   101.20   -7 LegendNANA
22:00 -4.2 -6.5 84 36 8   101.21   -8 LegendNANA
23:00 -4.5 -6.1 89 35 9   101.21   -8 LegendNANA

Notes on Data Quality.

Legend

  • E = Estimated
  • M = Missing
  • NA = Not Available
  • ‡ = Partner data that is not subject to review by the National Climate Archives
Date modified: